Weather History for Maple Lake, MN

Change the Weather History Date:

Tuesday, December 11, 2012

  Actual Average (KSTC) Record (KSTC)
Temperature  
Mean Temperature 8 °F 17 °F  
Max Temperature 18 °F 26 °F 53 °F (1913)
Min Temperature -4 °F 8 °F -23 °F (1936)
Degree Days  
Heating Degree Days 58 48  
Month to date heating degree days 505  
Since 1 July heating degree days 2430  
Cooling Degree Days 0 0  
Month to date cooling degree days 0  
Year to date cooling degree days 465  
Moisture  
Dew Point 4 °F    
Average Humidity 88    
Maximum Humidity 95    
Minimum Humidity 75    
Precipitation  
Precipitation 0.00 in 0.03 in 0.58 in (1965)
Month to date precipitation 0.32  
Year to date precipitation 27.23  
Snow  
Snow 0.00 in 0.40 in 5.30 in (2010)
Month to date snowfall 3.5  
Since 1 July snowfall 12.7  
Snow Depth -    
Sea Level Pressure  
Sea Level Pressure 29.86 in    
Wind  
Wind Speed 2 mph (WSW)    
Max Wind Speed 10 mph    
Max Gust Speed -    
Visibility 8 miles    
Events Snow    
T = Trace of Precipitation, MM = Missing Value Source: NWS Daily Summary

Daily Weather History Graph

Daily Weather History Graph

Search for Another Location

Airport:

Trip Planner

Search our weather history database for the weather conditions in past years. The results will help you decide how hot, cold, wet, or windy it might be!

Date:

Astronomy

Dec. 11, 2012 Rise Set
Actual Time 7:45 AM CST 4:33 PM CST
Civil Twilight 7:11 AM CST 5:07 PM CST
Nautical Twilight 6:34 AM CST 5:44 PM CST
Astronomical Twilight 5:58 AM CST 6:20 PM CST
Moon 5:38 AM CST (12/11) 3:15 PM CST (12/11)
Length of Visible Light 9h 55m
Length of Day
8h 48m
Waning Crescent, 4% of the Moon is Illuminated
Dec 11
Waning Crescent
Dec 13
New
Dec 19
First Quarter
Dec 28
Full
Jan 4
Last Quarter

Hourly Weather History & Observations

Time (CST) Temp. Windchill Dew Point Humidity Pressure Visibility Wind Dir Wind Speed Gust Speed Precip Events Conditions
12:34 AM 1.4 °F -6.2 °F -1.7 °F 87% 29.80 in 10.0 mi SSE 3.5 mph - N/A   Overcast
12:54 AM 1.6 °F - -1.3 °F 88% 29.79 in 5.0 mi Calm Calm - N/A Snow Light Snow
1:15 AM 2.3 °F - -0.4 °F 88% 29.79 in 10.0 mi Calm Calm - N/A   Overcast
1:35 AM 3.2 °F - 0.5 °F 89% 29.78 in 4.0 mi Calm Calm - N/A Snow Light Snow
1:55 AM 3.6 °F - 0.7 °F 88% 29.78 in 4.0 mi Calm Calm - N/A Snow Light Snow
2:15 AM 3.2 °F - 0.5 °F 89% 29.78 in 5.0 mi Calm Calm - N/A Snow Light Snow
2:35 AM 2.5 °F - 0.1 °F 90% 29.78 in 7.0 mi Calm Calm - N/A Snow Light Snow
2:55 AM 2.8 °F - 0.3 °F 89% 29.79 in 10.0 mi Calm Calm - N/A   Overcast
3:15 AM 2.1 °F - -0.2 °F 90% 29.78 in 7.0 mi Calm Calm - N/A Snow Light Snow
3:35 AM 0.9 °F - -1.1 °F 91% 29.78 in 10.0 mi Calm Calm - N/A   Scattered Clouds
3:55 AM -0.4 °F - -2.2 °F 92% 29.78 in 7.0 mi Calm Calm - N/A   Mostly Cloudy
4:14 AM 2.5 °F -7.0 °F 1.2 °F 94% 29.78 in 10.0 mi WSW 4.6 mph - N/A   Overcast
4:35 AM 4.8 °F -4.3 °F 3.0 °F 92% 29.78 in 10.0 mi WSW 4.6 mph - N/A Snow Light Snow
4:54 AM 5.7 °F - 3.9 °F 92% 29.78 in 10.0 mi Calm Calm - N/A   Overcast
5:15 AM 6.6 °F -0.3 °F 4.8 °F 92% 29.78 in 7.0 mi WSW 3.5 mph - N/A Snow Light Snow
5:35 AM 6.8 °F - 5.0 °F 92% 29.78 in 2.5 mi Calm Calm - N/A Snow Light Snow
5:55 AM 6.6 °F - 4.8 °F 92% 29.79 in 10.0 mi Calm Calm - N/A   Mostly Cloudy
6:14 AM 5.7 °F -1.3 °F 4.1 °F 93% 29.78 in 10.0 mi SW 3.5 mph - N/A   Clear
6:35 AM 4.8 °F -4.3 °F 3.0 °F 92% 29.78 in 7.0 mi SW 4.6 mph - N/A   Clear
6:55 AM 3.9 °F -3.4 °F 2.1 °F 92% 29.80 in 7.0 mi SW 3.5 mph - N/A   Clear
7:15 AM 3.9 °F - 2.3 °F 93% 29.80 in 7.0 mi Calm Calm - N/A   Clear
7:34 AM 2.8 °F - 0.9 °F 91% 29.81 in 7.0 mi Calm Calm - N/A   Clear
7:55 AM 2.3 °F - -0.2 °F 89% 29.82 in 10.0 mi Calm Calm - N/A   Scattered Clouds
8:15 AM 4.6 °F - 3.0 °F 93% 29.82 in 5.0 mi Calm Calm - N/A   Overcast
8:34 AM 5.9 °F - 4.1 °F 92% 29.82 in 10.0 mi Calm Calm - N/A   Overcast
8:55 AM 6.4 °F -0.5 °F 4.6 °F 92% 29.82 in 10.0 mi South 3.5 mph - N/A   Overcast
9:15 AM 6.8 °F - 5.0 °F 92% 29.83 in 10.0 mi Calm Calm - N/A   Overcast
9:55 AM 8.2 °F - 6.4 °F 92% 29.84 in 10.0 mi Calm Calm - N/A   Overcast
10:15 AM 9.5 °F 3.0 °F 7.9 °F 93% 29.85 in 10.0 mi WSW 3.5 mph - N/A   Overcast
10:34 AM 10.8 °F - 8.6 °F 91% 29.85 in 10.0 mi Calm Calm - N/A   Overcast
10:55 AM 11.3 °F 5.1 °F 9.1 °F 91% 29.85 in 10.0 mi SW 3.5 mph - N/A   Overcast
11:15 AM 12.2 °F 6.1 °F 9.3 °F 88% 29.85 in 7.0 mi SW 3.5 mph - N/A   Overcast
11:35 AM 13.6 °F 6.0 °F 10.2 °F 86% 29.85 in 10.0 mi SW 4.6 mph - N/A   Overcast
11:54 AM 14.4 °F 8.6 °F 10.6 °F 85% 29.84 in 10.0 mi SW 3.5 mph - N/A   Overcast
12:15 PM 15.3 °F 6.6 °F 11.1 °F 84% 29.85 in 10.0 mi SW 5.8 mph - N/A   Overcast
12:34 PM 15.8 °F 8.6 °F 11.3 °F 82% 29.85 in 10.0 mi WSW 4.6 mph - N/A   Overcast
12:55 PM 16.7 °F 5.3 °F 11.5 °F 80% 29.85 in 10.0 mi West 9.2 mph - N/A   Overcast
1:15 PM 17.2 °F 6.8 °F 12.0 °F 80% 29.85 in 10.0 mi West 8.1 mph - N/A   Overcast
1:35 PM 17.6 °F 8.2 °F 12.2 °F 79% 29.85 in 10.0 mi West 6.9 mph - N/A   Overcast
1:55 PM 18.5 °F 8.4 °F 12.2 °F 76% 29.86 in 10.0 mi West 8.1 mph - N/A   Overcast
2:14 PM 18.5 °F 6.8 °F 11.8 °F 75% 29.86 in 10.0 mi West 10.4 mph - N/A   Scattered Clouds
2:35 PM 18.1 °F 7.9 °F 11.3 °F 75% 29.86 in 10.0 mi West 8.1 mph - N/A   Scattered Clouds
2:55 PM 17.6 °F 8.2 °F 11.3 °F 76% 29.87 in 10.0 mi West 6.9 mph - N/A   Scattered Clouds
3:14 PM 17.1 °F 5.8 °F 10.9 °F 77% 29.88 in 10.0 mi West 9.2 mph - N/A   Clear
3:35 PM 16.7 °F 7.2 °F 10.8 °F 77% 29.88 in 10.0 mi West 6.9 mph - N/A   Clear
3:55 PM 15.8 °F 7.2 °F 10.4 °F 79% 29.89 in 10.0 mi West 5.8 mph - N/A   Scattered Clouds
4:15 PM 14.9 °F 9.2 °F 9.9 °F 80% 29.89 in 10.0 mi WNW 3.5 mph - N/A   Scattered Clouds
4:34 PM 12.7 °F - 8.8 °F 84% 29.90 in 10.0 mi Calm Calm - N/A   Clear
4:55 PM 10.0 °F 1.8 °F 7.3 °F 89% 29.91 in 10.0 mi West 4.6 mph - N/A   Clear
5:15 PM 9.5 °F - 7.2 °F 90% 29.91 in 10.0 mi Calm Calm - N/A   Clear
5:35 PM 7.9 °F - 6.4 °F 94% 29.91 in 10.0 mi Calm Calm - N/A   Clear
5:55 PM 5.0 °F -4.1 °F 3.7 °F 95% 29.92 in 10.0 mi West 4.6 mph - N/A   Clear
6:15 PM 5.9 °F - 4.6 °F 95% 29.93 in 10.0 mi Calm Calm - N/A   Scattered Clouds
6:35 PM 4.8 °F - 3.7 °F 95% 29.93 in 7.0 mi Calm Calm - N/A   Clear
6:55 PM 2.5 °F -5.0 °F 0.9 °F 93% 29.93 in 7.0 mi West 3.5 mph - N/A   Clear
7:15 PM 3.6 °F -3.8 °F 2.3 °F 94% 29.94 in 7.0 mi WNW 3.5 mph - N/A   Clear
7:55 PM 2.8 °F - 1.0 °F 92% 29.95 in 7.0 mi Calm Calm - N/A   Clear
8:15 PM 1.0 °F - -1.1 °F 91% 29.96 in 7.0 mi Calm Calm - N/A   Clear
8:34 PM 0.5 °F - -1.7 °F 91% 29.97 in 7.0 mi Calm Calm - N/A   Clear
8:55 PM -0.2 °F - -2.6 °F 90% 29.97 in 7.0 mi Calm Calm - N/A   Clear
9:15 PM -2.4 °F - -4.9 °F 89% 29.97 in 5.0 mi Calm Calm - N/A   Clear
9:35 PM -2.0 °F - -4.2 °F 91% 29.97 in 5.0 mi Calm Calm - N/A   Clear
9:55 PM -2.6 °F - -4.5 °F 91% 29.98 in 2.5 mi Calm Calm - N/A   Clear
10:15 PM -0.9 °F - -3.3 °F 90% 29.98 in 4.0 mi Calm Calm - N/A   Clear
10:35 PM -2.9 °F - -5.1 °F 90% 29.98 in 5.0 mi Calm Calm - N/A   Clear
10:54 PM -1.1 °F - -3.5 °F 90% 29.98 in 7.0 mi Calm Calm - N/A   Clear
11:15 PM -2.7 °F - -5.4 °F 88% 29.99 in 7.0 mi Calm Calm - N/A   Clear
11:35 PM -3.6 °F - -6.5 °F 87% 29.99 in 5.0 mi Calm Calm - N/A   Clear
11:55 PM -4.4 °F - -7.2 °F 87% 29.99 in 5.0 mi Calm Calm - N/A   Clear